Mora, MN

2:14 AM CST on December 08, 2016 (GMT -0600)
Mora Municipal

Weather History for KJMR - November, 2013

Change the Weather History Date:

Friday, November 1, 2013

  Actual Average Record
Temperature  
Mean Temperature 38 °F -  
Max Temperature 42 °F 48 °F 70 °F (1944)
Min Temperature 35 °F 27 °F -2 °F (1984)
Degree Days  
Heating Degree Days 26    
Moisture  
Dew Point 33 °F    
Average Humidity 82    
Maximum Humidity 93    
Minimum Humidity 66    
Precipitation  
Precipitation 0.00 in - - ()
Sea Level Pressure  
Sea Level Pressure 29.62 in    
Wind  
Wind Speed 7 mph (NW)    
Max Wind Speed 16 mph    
Max Gust Speed 21 mph    
Visibility 9 miles    
Events      
Averages and records for this station are not official NWS values.
T = Trace of Precipitation, MM = Missing Value Source: NWS Daily Summary

Daily Weather History Graph

Daily Weather History Graph

Search for Another Location

Airport or City:

Trip Planner

Search our weather history database for the weather conditions in past years. The results will help you decide how hot, cold, wet, or windy it might be!

Date:

Astronomy

Nov. 01, 2013 Rise Set
Actual Time 7:53 AM CDT 5:58 PM CDT
Civil Twilight 7:22 AM CDT 6:30 PM CDT
Nautical Twilight 6:47 AM CDT 7:05 PM CDT
Astronomical Twilight 6:12 AM CDT 7:39 PM CDT
Moon 5:41 AM CDT (11/1) 4:56 PM CDT (11/1)
Length of Visible Light 11h 07m
Length of Day
10h 05m
Waning Crescent, 4% of the Moon is Illuminated
Nov 1
Waning Crescent
Nov 3
New
Nov 9
First Quarter
Nov 17
Full
Nov 25
Last Quarter

Hourly Weather History & Observations

Time (CDT) Temp. Windchill Dew Point Humidity Pressure Visibility Wind Dir Wind Speed Gust Speed Precip Events Conditions
12:14 AM 37.4 °F 30.8 °F 35.6 °F 93% 29.40 in 10.0 mi NW 9.2 mph - N/A   Overcast
12:34 AM 37.4 °F 30.3 °F 35.6 °F 93% 29.40 in 10.0 mi NW 10.4 mph - N/A   Overcast
12:54 AM 37.4 °F 30.8 °F 35.6 °F 93% 29.40 in 10.0 mi NW 9.2 mph - N/A   Overcast
1:14 AM 37.4 °F 32.8 °F 35.6 °F 93% 29.41 in 10.0 mi NNW 5.8 mph - N/A   Overcast
1:34 AM 37.4 °F 32.8 °F 35.6 °F 93% 29.42 in 10.0 mi NW 5.8 mph - N/A   Overcast
1:54 AM 37.4 °F 33.8 °F 35.6 °F 93% 29.42 in 10.0 mi NNW 4.6 mph - N/A   Overcast
2:14 AM 37.4 °F 33.8 °F 35.6 °F 93% 29.43 in 10.0 mi NW 4.6 mph - N/A   Overcast
2:34 AM 37.4 °F 33.8 °F 35.6 °F 93% 29.43 in 10.0 mi WNW 4.6 mph - N/A   Overcast
2:54 AM 37.4 °F 33.8 °F 35.6 °F 93% 29.44 in 10.0 mi WNW 4.6 mph - N/A   Overcast
3:14 AM 37.4 °F 32.8 °F 35.6 °F 93% 29.45 in 10.0 mi WNW 5.8 mph - N/A   Overcast
3:34 AM 37.4 °F 32.1 °F 35.6 °F 93% 29.45 in 10.0 mi WNW 6.9 mph - N/A   Overcast
3:54 AM 37.4 °F 31.4 °F 35.6 °F 93% 29.45 in 10.0 mi WNW 8.1 mph - N/A   Overcast
4:14 AM 37.4 °F 33.8 °F 33.8 °F 87% 29.46 in 7.0 mi WNW 4.6 mph - N/A   Overcast
4:33 AM 37.4 °F 32.8 °F 33.8 °F 87% 29.46 in 7.0 mi WNW 5.8 mph - N/A   Mostly Cloudy
4:54 AM 35.6 °F 30.7 °F 33.8 °F 93% 29.47 in 7.0 mi WNW 5.8 mph - N/A   Scattered Clouds
5:14 AM 35.6 °F 31.7 °F 33.8 °F 93% 29.47 in 7.0 mi WNW 4.6 mph - N/A   Scattered Clouds
5:34 AM 35.6 °F 32.8 °F 33.8 °F 93% 29.48 in 7.0 mi West 3.5 mph - N/A   Mostly Cloudy
5:54 AM 35.6 °F - 33.8 °F 93% 29.48 in 7.0 mi Calm Calm - N/A   Overcast
6:14 AM 35.6 °F - 33.8 °F 93% 29.49 in 5.0 mi Calm Calm - N/A   Overcast
6:34 AM 35.6 °F - 33.8 °F 93% 29.50 in 5.0 mi Calm Calm - N/A   Overcast
6:54 AM 37.4 °F 34.9 °F 33.8 °F 87% 29.50 in 7.0 mi WNW 3.5 mph - N/A   Overcast
7:14 AM 37.4 °F 32.8 °F 33.8 °F 87% 29.50 in 7.0 mi WNW 5.8 mph - N/A   Overcast
7:34 AM 37.4 °F 32.1 °F 33.8 °F 87% 29.51 in 7.0 mi WNW 6.9 mph - N/A   Overcast
7:54 AM 37.4 °F 32.1 °F 33.8 °F 87% 29.52 in 7.0 mi WNW 6.9 mph - N/A   Overcast
8:14 AM 37.4 °F 32.1 °F 33.8 °F 87% 29.53 in 7.0 mi WNW 6.9 mph - N/A   Overcast
8:34 AM 37.4 °F 32.1 °F 33.8 °F 87% 29.54 in 7.0 mi WNW 6.9 mph - N/A   Overcast
8:54 AM 37.4 °F 32.8 °F 33.8 °F 87% 29.55 in 7.0 mi NW 5.8 mph - N/A   Overcast
9:14 AM 37.4 °F 31.4 °F 33.8 °F 87% 29.55 in 7.0 mi NW 8.1 mph - N/A   Overcast
9:34 AM 37.4 °F 32.1 °F 33.8 °F 87% 29.56 in 7.0 mi WNW 6.9 mph - N/A   Overcast
9:54 AM 37.4 °F 31.4 °F 32.0 °F 81% 29.56 in 7.0 mi WNW 8.1 mph - N/A   Overcast
10:14 AM 37.4 °F 32.1 °F 32.0 °F 81% 29.57 in 7.0 mi WNW 6.9 mph - N/A   Mostly Cloudy
10:33 AM 37.4 °F 31.4 °F 32.0 °F 81% 29.58 in 10.0 mi NW 8.1 mph 17.3 mph N/A   Scattered Clouds
10:54 AM 39.2 °F 31.6 °F 32.0 °F 75% 29.58 in 10.0 mi NW 12.7 mph - N/A   Scattered Clouds
11:14 AM 41.0 °F 33.5 °F 32.0 °F 70% 29.58 in 10.0 mi NNW 13.8 mph - N/A   Scattered Clouds
11:34 AM 41.0 °F 34.7 °F 33.8 °F 76% 29.59 in 10.0 mi WNW 10.4 mph - N/A   Scattered Clouds
11:53 AM 42.8 °F 37.0 °F 33.8 °F 70% 29.60 in 10.0 mi NW 10.4 mph - N/A   Mostly Cloudy
12:13 PM 42.8 °F 36.6 °F 33.8 °F 70% 29.61 in 10.0 mi NNW 11.5 mph - N/A   Scattered Clouds
12:34 PM 41.0 °F 34.7 °F 33.8 °F 76% 29.62 in 10.0 mi WNW 10.4 mph 16.1 mph N/A   Mostly Cloudy
12:54 PM 41.0 °F 34.7 °F 32.0 °F 70% 29.62 in 10.0 mi NW 10.4 mph - N/A   Mostly Cloudy
1:14 PM 41.0 °F 34.7 °F 32.0 °F 70% 29.63 in 10.0 mi NW 10.4 mph - N/A   Mostly Cloudy
1:34 PM 41.0 °F 33.9 °F 32.0 °F 70% 29.63 in 10.0 mi NNW 12.7 mph - N/A   Mostly Cloudy
1:54 PM 42.8 °F 36.2 °F 33.8 °F 70% 29.64 in 10.0 mi NNW 12.7 mph 18.4 mph N/A   Overcast
2:14 PM 42.8 °F 36.2 °F 32.0 °F 66% 29.64 in 10.0 mi NNW 12.7 mph 18.4 mph N/A   Mostly Cloudy
2:34 PM 42.8 °F 36.2 °F 33.8 °F 70% 29.65 in 10.0 mi NNW 12.7 mph 19.6 mph N/A   Mostly Cloudy
2:54 PM 42.8 °F 35.1 °F 32.0 °F 66% 29.66 in 10.0 mi NNW 16.1 mph 20.7 mph N/A   Overcast
3:14 PM 42.8 °F 35.8 °F 32.0 °F 66% 29.66 in 10.0 mi NNW 13.8 mph 18.4 mph N/A   Mostly Cloudy
3:34 PM 42.8 °F 36.6 °F 32.0 °F 66% 29.67 in 10.0 mi NNW 11.5 mph 17.3 mph N/A   Overcast
3:53 PM 41.0 °F 35.2 °F 32.0 °F 70% 29.68 in 10.0 mi NNW 9.2 mph - N/A   Overcast
4:14 PM 39.2 °F 32.5 °F 32.0 °F 75% 29.70 in 10.0 mi NNW 10.4 mph 18.4 mph N/A   Overcast
4:34 PM 39.2 °F 33.0 °F 30.2 °F 70% 29.70 in 10.0 mi NNW 9.2 mph 16.1 mph N/A   Overcast
4:54 PM 37.4 °F 30.8 °F 30.2 °F 75% 29.71 in 10.0 mi NNW 9.2 mph 17.3 mph N/A   Overcast
5:14 PM 37.4 °F 33.8 °F 30.2 °F 75% 29.72 in 10.0 mi North 4.6 mph - N/A   Overcast
5:34 PM 37.4 °F 31.4 °F 28.4 °F 70% 29.74 in 10.0 mi North 8.1 mph 18.4 mph N/A   Overcast
5:54 PM 37.4 °F 34.9 °F 30.2 °F 75% 29.74 in 10.0 mi North 3.5 mph - N/A   Overcast
6:14 PM 37.4 °F - 30.2 °F 75% 29.75 in 10.0 mi Calm Calm - N/A   Overcast
6:34 PM 37.4 °F - 30.2 °F 75% 29.77 in 10.0 mi Calm Calm - N/A   Overcast
6:54 PM 37.4 °F - 30.2 °F 75% 29.78 in 10.0 mi Calm Calm - N/A   Overcast
7:14 PM 37.4 °F - 30.2 °F 75% 29.79 in 10.0 mi Calm Calm - N/A   Overcast
7:34 PM 37.4 °F - 30.2 °F 75% 29.79 in 10.0 mi Calm Calm - N/A   Overcast
7:54 PM 37.4 °F - 30.2 °F 75% 29.80 in 10.0 mi Calm Calm - N/A   Overcast
8:14 PM 37.4 °F 34.9 °F 30.2 °F 75% 29.80 in 10.0 mi North 3.5 mph - N/A   Overcast
8:34 PM 37.4 °F - 30.2 °F 75% 29.81 in 10.0 mi Calm Calm - N/A   Scattered Clouds
8:54 PM 35.6 °F - 30.2 °F 81% 29.81 in 10.0 mi Calm Calm - N/A   Clear
9:14 PM 35.6 °F - 30.2 °F 81% 29.81 in 10.0 mi Calm Calm - N/A   Mostly Cloudy
9:34 PM 35.6 °F - 32.0 °F 87% 29.81 in 10.0 mi Calm Calm - N/A   Overcast
9:54 PM 35.6 °F - 32.0 °F 87% 29.82 in 10.0 mi Calm Calm - N/A   Overcast
10:14 PM 35.6 °F - 32.0 °F 87% 29.82 in 10.0 mi Calm Calm - N/A   Overcast
10:34 PM 35.6 °F - 32.0 °F 87% 29.83 in 10.0 mi Calm Calm - N/A   Overcast
10:54 PM 35.6 °F - 32.0 °F 87% 29.83 in 10.0 mi Calm Calm - N/A   Overcast
11:14 PM 35.6 °F - 32.0 °F 87% 29.83 in 10.0 mi Calm Calm - N/A   Overcast
11:34 PM 35.6 °F 31.7 °F 32.0 °F 87% 29.84 in 10.0 mi West 4.6 mph - N/A   Overcast
11:54 PM 35.6 °F 32.8 °F 32.0 °F 87% 29.84 in 10.0 mi West 3.5 mph - N/A   Overcast